Regional Weather Roundup
Issued by NWS Albany, NY

Home | Current Version | Previous Version | Text Only | Print | Product List | Glossary On
Versions: 1 2 3 4 5 6 7 8 9 10 11 12 13 14 15 16 17 18 19 20 21 22 23 24 25 26 27 28 29 30 31 32 33 34 35 36 37 38 39 40 41 42 43 44 45 46 47 48 49 50
000
ASUS41 KALY 280210
RWRALY

NEW YORK STATE HOURLY WEATHER ROUNDUP
NATIONAL WEATHER SERVICE ALBANY NY
900 PM EST FRI FEB 27 2015

NOTE: "FAIR" INDICATES FEW OR NO CLOUDS BELOW 12,000 FEET WITH NO
SIGNIFICANT WEATHER AND/OR NO OBSTRUCTIONS TO VISIBILITY.

NYZ032-033-038>043-046>054-057>066-NYZ062>081-280300-
EAST


CITY           SKY/WX    TMP DP  RH WIND       PRES   REMARKS
ALBANY         CLEAR     14  -1  51 NW13      30.55R WCI   0
GLENS FALLS    CLEAR      4  -5  66 W7        30.52R WCI  -8
POUGHKEEPSIE   CLEAR     14   3  61 CALM      30.55R
NEWBURGH       CLEAR     18   1  49 NW14      30.53R WCI   4
MONTGOMERY     CLEAR     17  -3  41 NW9       30.53R WCI   6
WHITE PLAINS   CLEAR     21  -1  38 NW13      30.51R WCI   9
ISLIP          CLEAR     23   6  48 NW9       30.51R WCI  13
NEW YORK CITY  CLEAR     25   4  40 NW15G23   30.55R WCI  13
CENTRAL PARK   CLEAR     25  -1  32 NW7       30.56R WCI  17
$$

NYZ005>009-017-018-044>046-055-056-280300-
CENTRAL


CITY           SKY/WX    TMP DP  RH WIND       PRES   REMARKS
FULTON         CLOUDY     8  -2  63 SW7       30.59R WCI  -3
SYRACUSE       PTCLDY    10  -3  55 W9        30.60R WCI  -3
ROME           MOCLDY     7  -1  70 W5        30.59R WCI  -2
ELMIRA         CLEAR      6  -4  63 CALM      30.57R
BINGHAMTON     CLEAR      6  -4  63 N6        30.47R WCI  -4
MONTICELLO     CLEAR     10  -6  48 NW6       30.47R WCI   1
$$

NYZ026>034-041>043-280300-
NORTH


CITY           SKY/WX    TMP DP  RH WIND       PRES   REMARKS
WATERTOWN      LGT SNOW  14   9  80 SW17G25   30.57R VSB 3/4 WCI  -3
FORT DRUM      NOT AVBL
MASSENA        CLEAR      8  -2  63 SW13      30.52R WCI  -8
SARANAC LAKE   CLOUDY     4  -4  69 SW3       30.38R
PLATTSBURGH    CLEAR     12  -4  48 VRB5      30.50R WCI   4
$$

NYZ001>004-010>016-019>021-280300-
WEST


CITY           SKY/WX    TMP DP  RH WIND       PRES   REMARKS
NIAGARA FALLS  PTCLDY     6   1  80 SW12      30.61R WCI  -9
BUFFALO        CLEAR      6   0  76 SW10      30.60R WCI  -9
DUNKIRK        PTCLDY     2  -3  80 SW6       30.63R WCI  -9
JAMESTOWN      CLEAR      3  -2  78 W3        30.50S
WELLSVILLE     CLEAR      4  -8  57 W8        30.47R WCI  -9
ROCHESTER      CLEAR      7  -1  70 SW13      30.60R WCI  -9
PENN YAN       CLEAR      7  -8  50 SW5       30.56R WCI  -2
$$

             KEY
       WCI = WIND CHILL INDEX
       VSB = VISIBILITY
       HX  = HEAT INDEX
$$



USA.gov is the U.S. government's official web portal to all federal, state and local government web resources and services.